Persoonlijke zone
Imprimable
Torhout, 19/06/2015, BEL - Nacht Van Vlaanderen
Rapportenlijst > Marathon - Resultaat
Zoek: Bladzijde: [1]
45 Inputs
 
Klachten worden niet meer geaccepteerd. Resultaten zijn definitief.
PlaatsNrNaamLeef.IOCClubWerkelijkeTijdTkmGem.ScrGemeente
1.32BULTINCK Jimmy37BEL2:34:022:34:033:40 16.445AARTRIJKE
2.286VOET Bjorn40BEL2:42:512:42:533:52 15.548BOEZINGE
3.291WILLEMYNS Tom38BEL2:53:062:53:084:07 14.6212LANGEMARK-POELKAPELLE
4.333VERMEESCH Pieter39BEL2:55:232:55:254:10 14.4314DE HAAN
5.7AMELOOT Frederik38BELVASTGOEDBOX2:58:262:58:504:15 14.1620VELDEGEM
6.94DEVOS Stijn36BEL2:58:522:59:004:15 14.1421WINGENE
7.171MOREEL Merijn40BEL2:59:062:59:164:15 14.1222SINT-ANDRIES
8.206SIEBOLD Jeff37BELMYNEXRUN2:58:352:59:334:16 14.1023BARRINGTON, IL
9.285VINCKIER Glenn37BEL3:02:443:02:574:21 13.8428BAVIKHOVE
10.303VELGHE Robin37BELRUN & FUN GENK3:12:373:13:414:36 13.0752WINGENE
11.3ALLAWAY Dean36BELMYNEXRUN3:15:563:16:054:39 12.9162READING
12.347VERHAEKE Olivier35BELWE.ALL.LOVE.RUNNING3:18:333:19:004:43 12.7267ZOMERGEM
13.141JANSSENS Tom36BEL3:20:173:20:404:46 12.6273EKSAARDE
14.259VANHEE Wouter35BEL3:20:443:21:084:46 12.5974OOSTROZEBEKE
15.326GEYS Jef39BEL3:21:083:21:174:47 12.5875KASTERLEE
16.17BLANCKAERT Stefaan39BEL3:21:203:21:574:48 12.5478SINT-ANDRIES
17.72DE WEERT Johan40BEL3:26:163:26:524:55 12.2492TORHOUT
18.118GELDHOF Benny39BELTORRAC3:29:593:30:014:59 12.06102TORHOUT
19.231VAN HASSELT Raf37BEL3:35:163:35:445:07 11.74113VOSSELAAR
20.87DEMEYERE Lieven39BEL3:36:113:36:575:09 11.67116MOORSELE
21.346VANDEWEGHE Juan36BEL3:40:513:41:475:16 11.42136MENEN
22.27BOUT Kristof39BEL3:45:433:46:315:23 11.18151TORHOUT
23.64DE LEON Dio39BEL3:46:523:47:165:24 11.14153SCHIPLAKEN
24.288WALLAERT Steven37BEL3:52:573:53:105:32 10.86168RUDDERVOORDE
25.145KERCKAERT Ward38BEL3:55:143:56:005:36 10.73179SINT KRUIS BRUGGE
26.325VANDAMME Bjorn39BEL3:55:193:56:075:36 10.72180TORHOUT
27.258VANDROMME Pieter36BEL3:54:573:56:085:36 10.72181WAREGEM
28.228VAN DER GOOT Koenraad38BEL3:55:293:56:395:37 10.70184SINT MICHIELS
29.310DE LAUSNAY Gert37BEL3:57:543:59:125:41 10.58198LAARNE
30.261VANHOE Wim37BEL3:58:543:59:445:41 10.56200SINT-DENIJS-WESTREM
31.147KREKELBERGH Nico39BEL3:59:194:00:035:42 10.55202EERNEGEM
32.150LANGELEZ Olivier40BEL4:00:424:01:535:44 10.47205PERWEZ
33.232VAN HECKE Bart36BEL4:02:534:04:155:48 10.37210HEULE
34.40CARRÉ Stéphane39BELMYNEXRUN4:04:124:05:195:49 10.32211BRAINE L'ALLEUD
35.273VERHAEGEN Els38BEL4:05:334:06:085:50 10.29216HOMBEEK
36.322EECKHOUT Peter38BEL4:08:354:09:255:55 10.15224ROLLEGEM
37.295DE ROECK Bart39BEL4:08:564:09:265:55 10.15225
38.254VANDERMERSCH Carl38BELINFRAX4:14:414:15:116:03 9.92237INGELMUNSTER
39.292WIM Provoost35BEL4:17:104:18:336:08 9.79245ASSEBROEK
40.290WERBROUCK Marnick39BEL4:24:014:25:216:18 9.54257ARDOOIE
41.215TEMPLETON Joeri36BEL4:32:554:33:536:30 9.24266BREDENE
42.188RENIERS Cedric38BEL4:59:235:00:447:08 8.42282TORHOUT
DNF23BOULLART Dieter39BELOUDENAARDE
DNF34CAESTECKER Kevin37BELAC SODIBRUGWINGENE
DNF107DUWEIN Pepijn38BELABAVBONHEIDEN
DNF: abandon; DSQ: disqualifié; Vitesse en km/h
Bladzijde: [1]